Latest Weather Observations for Camden

IDN60801

Issued at 7:05 pm EST Friday 25 April 2014 (issued every 30 minutes, with the page automatically refreshed every 10 minutes)

About weather observations | Map of weather stations | Latest weather observations for NSW | Other Formats
Station Details ID: 068192 Name: CAMDEN AIRPORT AWS Lat: -34.04 Lon: 150.69 Height: 73.9 m
Data from the previous 72 hours. | See also: Recent months at Camden
Date/Time
EST
Temp
°C
App
Temp
°C
Dew
Point
Rel
Hum
%
Delta-T
°C
Wind Press
QNH
hPa
Press
MSL
hPa
Rain
since 9 am
mm
Dir
 
Spd
km/h
Gust
km/h
Spd
kts
Gust
kts
25/07:00pm 15.4 15.6 13.2 87 1.2 E 4 9 2 5 1019.5 - 0.2
25/06:30pm 16.1 17.2 13.6 85 1.4 NNE 0 6 0 3 1019.4 - 0.2
25/06:00pm 16.8 16.8 14.3 85 1.4 NNE 7 7 4 4 1019.1 1019.0 0.2
25/05:30pm 18.3 18.6 14.4 78 2.3 NE 6 7 3 4 1019.0 - 0.2
25/05:00pm 19.0 19.9 15.1 78 2.3 ENE 4 7 2 4 1019.1 - 0.2
25/04:30pm 19.5 19.9 15.2 76 2.5 NE 7 11 4 6 1019.1 - 0.2
25/04:00pm 20.2 20.5 14.6 70 3.3 E 6 9 3 5 1019.0 - 0.2
25/03:30pm 20.8 20.8 15.1 70 3.4 NE 9 11 5 6 1019.1 - 0.2
25/03:00pm 20.1 20.4 14.9 72 3.1 NE 7 11 4 6 1019.2 1019.1 0.2
25/02:30pm 19.7 19.3 15.1 75 2.7 ENE 11 19 6 10 1019.8 - 0.2
25/02:00pm 18.5 18.6 15.6 83 1.7 ENE 9 13 5 7 1020.1 - 0.2
25/01:30pm 18.3 16.0 14.6 79 2.1 NNE 20 28 11 15 1020.6 - 0.0
25/01:00pm 20.4 19.8 14.7 70 3.3 E 11 22 6 12 1020.8 - 0.0
25/12:30pm 19.9 21.0 14.7 72 3.0 NE 2 9 1 5 1021.4 - 0.0
25/12:00pm 19.0 20.7 15.3 79 2.2 CALM 0 0 0 0 1021.9 1021.8 0.0
25/11:30am 18.4 18.6 14.1 76 2.5 E 6 19 3 10 1022.4 - 0.0
25/11:00am 18.8 19.0 14.1 74 2.7 S 6 9 3 5 1022.6 - 0.0
25/10:30am 18.5 18.6 14.0 75 2.6 S 6 9 3 5 1023.0 - 0.0
25/10:00am 17.8 17.8 14.3 80 2.0 SSW 7 11 4 6 1023.2 - 0.0
25/09:30am 17.4 17.1 14.5 83 1.7 S 9 13 5 7 1023.1 - 0.0
25/09:00am 16.4 16.3 13.9 85 1.4 S 7 9 4 5 1023.5 1023.4 0.4
25/08:30am 16.5 16.6 14.0 85 1.4 S 6 7 3 4 1023.3 - 0.4
25/08:00am 16.6 16.5 13.3 81 1.9 S 6 7 3 4 1023.0 - 0.2
25/07:30am 16.4 16.1 13.3 82 1.7 SSW 7 9 4 5 1021.9 - 0.2
25/07:00am 16.0 16.7 13.3 84 1.5 SSW 2 7 1 4 1021.5 - 0.2
25/06:30am 16.0 15.7 13.3 84 1.5 SSW 7 9 4 5 1021.6 - 0.2
25/06:00am 15.9 14.8 13.2 84 1.5 S 11 17 6 9 1021.2 1021.1 0.2
25/05:30am 16.3 15.5 13.0 81 1.8 SSE 9 11 5 6 1021.1 - 0.2
25/05:00am 16.7 16.2 12.8 78 2.2 SSW 7 11 4 6 1020.7 - 0.0
25/04:30am 16.8 16.4 13.1 79 2.1 S 7 11 4 6 1020.4 - 0.0
25/04:00am 16.8 16.5 13.3 80 2.0 S 7 11 4 6 1020.2 - 0.0
25/03:30am 16.7 15.6 13.2 80 2.0 S 11 17 6 9 1020.0 - 0.0
25/03:00am 17.2 16.2 13.5 79 2.1 S 11 13 6 7 1020.1 1020.0 0.0
25/02:30am 17.2 16.3 13.7 80 2.0 S 11 17 6 9 1020.0 - 0.0
25/02:00am 17.7 17.7 14.2 80 2.0 SSW 7 11 4 6 1020.1 - 0.0
25/01:30am 17.8 18.0 14.1 79 2.1 S 6 7 3 4 1020.3 - 0.0
25/01:00am 18.1 17.4 14.4 79 2.1 SSE 11 17 6 9 1020.2 - 0.0
25/12:30am 18.2 17.2 14.7 80 2.0 S 13 19 7 10 1019.9 - 0.0
25/12:00am 17.6 16.4 14.1 80 2.0 S 13 22 7 12 1019.5 1019.4 0.0
 
Date/Time
EST
Temp
°C
App
Temp
°C
Dew
Point
Rel
Hum
%
Delta-T
°C
Wind Press
QNH
hPa
Press
MSL
hPa
Rain
since 9 am
mm
Dir
 
Spd
km/h
Gust
km/h
Spd
kts
Gust
kts
24/11:30pm 17.8 15.9 14.3 80 2.0 S 17 26 9 14 1019.2 - 0.0
24/11:00pm 17.7 17.0 14.4 81 1.9 S 11 20 6 11 1019.1 - 0.0
24/10:30pm 17.2 15.8 12.1 72 2.8 SSW 11 15 6 8 1018.8 - 0.0
24/10:00pm 18.1 15.4 10.5 61 4.1 SSW 15 20 8 11 1018.4 - 0.0
24/09:30pm 18.3 15.9 10.2 59 4.3 S 13 17 7 9 1018.1 - 0.0
24/09:00pm 18.2 16.2 10.3 60 4.2 S 11 15 6 8 1017.2 1017.1 0.0
24/08:30pm 18.1 16.4 10.0 59 4.3 S 9 13 5 7 1016.8 - 0.0
24/08:00pm 17.9 16.1 9.5 58 4.4 S 9 11 5 6 1016.2 - 0.0
24/07:30pm 16.8 15.3 9.0 60 4.0 S 7 11 4 6 1015.4 - 0.0
24/07:00pm 17.1 15.8 9.3 60 4.1 SSW 6 7 3 4 1015.0 - 0.0
24/06:30pm 20.3 19.8 8.0 45 6.4 CALM 0 0 0 0 1014.5 - 0.0
24/06:00pm 22.0 19.9 6.7 37 7.8 S 7 11 4 6 1013.8 1013.7 0.0
24/05:30pm 23.2 20.3 6.5 34 8.6 SSW 11 13 6 7 1013.1 - 0.0
24/05:00pm 24.5 21.6 6.7 32 9.3 SW 11 17 6 9 1012.5 - 0.0
24/04:30pm 26.8 22.8 6.8 28 10.6 WSW 17 22 9 12 1012.1 - 0.0
24/04:00pm 27.6 23.4 7.5 28 10.8 WSW 19 28 10 15 1011.9 - 0.0
24/03:30pm 28.1 23.9 7.4 27 11.1 SW 19 28 10 15 1011.6 - 0.0
24/03:00pm 28.9 26.0 9.6 30 10.8 SW 15 20 8 11 1011.4 1011.3 0.0
24/02:30pm 29.3 25.7 8.4 27 11.5 W 17 24 9 13 1011.3 - 0.0
24/02:00pm 28.7 25.5 8.4 28 11.1 WNW 15 24 8 13 1011.3 - 0.0
24/01:30pm 27.8 24.9 8.1 29 10.7 WNW 13 19 7 10 1011.5 - 0.0
24/01:00pm 26.4 25.3 10.5 37 8.9 N 7 9 4 5 1011.8 - 0.0
24/12:30pm 25.4 25.4 11.2 41 8.0 E 2 7 1 4 1012.2 - 0.0
24/12:00pm 24.2 24.3 11.5 45 7.2 ENE 2 7 1 4 1012.8 1012.7 0.0
24/11:30am 22.6 22.0 10.4 46 6.7 S 4 7 2 4 1013.3 - 0.0
24/11:00am 21.2 20.4 11.0 52 5.6 S 6 7 3 4 1013.7 - 0.0
24/10:30am 20.3 19.5 11.0 55 5.1 ESE 6 9 3 5 1013.9 - 0.0
24/10:00am 19.6 20.0 11.4 59 4.5 CALM 0 0 0 0 1013.8 - 0.0
24/09:30am 16.8 17.2 11.3 70 3.0 CALM 0 0 0 0 1014.0 - 0.0
24/09:00am 15.5 16.0 11.7 78 2.1 CALM 0 0 0 0 1014.3 1014.2 0.0
24/08:30am 14.7 14.5 11.7 82 1.6 N 4 7 2 4 1014.1 - 0.0
24/08:00am 13.2 13.3 11.6 90 0.9 SW 2 9 1 5 1013.9 - 0.0
24/07:30am 11.2 11.5 11.0 99 0.1 CALM 0 0 0 0 1013.8 - 0.0
24/07:01am 9.9 9.9 9.8 99 0.1 CALM 0 0 0 0 1013.5 - 0.0
24/07:00am 10.0 10.0 9.9 99 0.1 CALM 0 0 0 0 1013.5 - 0.0
24/06:30am 9.5 9.3 9.2 98 0.1 CALM 0 0 0 0 1013.4 - 0.0
24/06:24am 9.5 9.4 9.4 99 0.0 CALM 0 0 0 0 1013.4 - 0.0
24/06:20am 9.6 9.5 9.5 99 0.0 CALM 0 0 0 0 1013.4 - 0.0
24/06:00am 9.6 9.5 9.5 99 0.0 CALM 0 6 0 3 1013.3 1013.2 0.0
24/05:55am 9.7 9.3 9.6 99 0.1 N 2 6 1 3 1013.2 - 0.0
24/05:30am 10.2 10.3 10.0 99 0.1 CALM 0 0 0 0 1013.4 - 0.0
24/05:00am 9.9 8.8 9.8 99 0.1 SSW 6 9 3 5 1013.1 - 0.0
24/04:30am 9.9 9.8 9.6 98 0.2 CALM 0 0 0 0 1013.1 - 0.0
24/04:00am 10.3 10.4 10.1 99 0.1 CALM 0 0 0 0 1013.2 - 0.0
24/03:30am 10.2 10.3 10.0 99 0.1 CALM 0 0 0 0 1013.3 - 0.0
24/03:21am 10.4 10.5 10.2 99 0.1 CALM 0 0 0 0 1013.4 - 0.0
24/03:07am 10.1 10.1 9.8 98 0.2 CALM 0 0 0 0 1013.7 - 0.0
24/03:05am 10.0 10.0 9.7 98 0.2 CALM 0 0 0 0 1013.6 - 0.0
24/03:04am 10.0 10.0 9.7 98 0.2 CALM 0 0 0 0 1013.6 - 0.0
24/03:00am 9.7 9.6 9.4 98 0.1 CALM 0 0 0 0 1013.6 1013.5 0.0
24/02:30am 9.5 9.3 8.9 96 0.3 CALM 0 0 0 0 1013.8 - 0.0
24/02:09am 10.4 10.4 9.9 97 0.3 CALM 0 0 0 0 1013.9 - 0.0
24/02:00am 10.3 10.3 9.8 97 0.3 CALM 0 0 0 0 1014.0 - 0.0
24/01:44am 10.1 10.0 9.6 97 0.3 CALM 0 0 0 0 1014.3 - 0.0
24/01:43am 10.2 10.2 9.7 97 0.3 CALM 0 0 0 0 1014.3 - 0.0
24/01:30am 10.4 10.0 9.8 96 0.3 S 2 6 1 3 1014.5 - 0.0
24/01:00am 10.6 9.9 10.0 96 0.3 S 4 7 2 4 1014.5 - 0.0
24/12:30am 11.3 11.5 10.7 96 0.3 CALM 0 0 0 0 1014.6 - 0.0
24/12:27am 11.2 11.4 10.6 96 0.3 CALM 0 0 0 0 1014.6 - 0.0
24/12:09am 11.4 11.6 10.6 95 0.4 CALM 0 0 0 0 1014.8 - 0.0
24/12:00am 11.4 11.6 10.6 95 0.4 CALM 0 0 0 0 1014.9 1014.9 0.0
 
Date/Time
EST
Temp
°C
App
Temp
°C
Dew
Point
Rel
Hum
%
Delta-T
°C
Wind Press
QNH
hPa
Press
MSL
hPa
Rain
since 9 am
mm
Dir
 
Spd
km/h
Gust
km/h
Spd
kts
Gust
kts
23/11:57pm 11.5 11.7 10.7 95 0.4 CALM 0 6 0 3 1014.9 - 0.0
23/11:30pm 11.8 12.1 10.9 94 0.5 CALM 0 0 0 0 1015.0 - 0.0
23/11:00pm 12.0 12.3 10.9 93 0.6 CALM 0 0 0 0 1015.1 - 0.0
23/10:30pm 12.1 12.3 10.7 91 0.7 CALM 0 0 0 0 1015.4 - 0.0
23/10:00pm 12.9 13.3 11.3 90 0.8 CALM 0 0 0 0 1015.5 - 0.0
23/09:30pm 12.7 13.1 11.1 90 0.8 CALM 0 0 0 0 1015.6 - 0.0
23/09:00pm 13.6 13.9 10.8 83 1.5 CALM 0 0 0 0 1015.8 1015.8 0.0
23/08:30pm 14.1 14.4 10.9 81 1.7 CALM 0 0 0 0 1015.8 - 0.0
23/08:00pm 15.0 15.4 11.2 78 2.0 CALM 0 2 0 1 1015.9 - 0.0
23/07:30pm 15.7 16.2 11.5 76 2.3 CALM 0 0 0 0 1015.8 - 0.0
23/07:00pm 17.6 17.9 10.9 65 3.6 CALM 0 0 0 0 1015.7 - 0.0
23/06:30pm 17.5 17.9 11.1 66 3.5 CALM 0 0 0 0 1015.6 - 0.0
23/06:00pm 19.3 17.7 10.3 56 4.8 NE 9 9 5 5 1015.2 1015.2 0.0
23/05:30pm 20.4 19.3 10.5 53 5.4 ENE 7 11 4 6 1014.8 - 0.0
23/05:00pm 22.4 20.7 11.2 49 6.2 N 11 13 6 7 1014.6 - 0.0
23/04:30pm 23.8 21.1 10.5 43 7.4 N 15 17 8 9 1014.4 - 0.0
23/04:00pm 24.9 22.8 11.1 42 7.8 N 13 17 7 9 1014.4 - 0.0
23/03:30pm 25.4 23.0 8.8 35 9.0 NNE 11 13 6 7 1014.4 - 0.0
23/03:00pm 25.8 24.4 9.6 36 8.9 NE 7 13 4 7 1014.4 1014.3 0.0
23/02:30pm 25.8 24.5 10.0 37 8.8 NE 7 13 4 7 1014.6 - 0.0
23/02:00pm 25.3 24.2 10.0 38 8.5 NNE 6 11 3 6 1014.7 - 0.0
23/01:30pm 24.9 23.5 9.6 38 8.4 NNE 7 13 4 7 1014.9 - 0.0
23/01:00pm 25.2 25.0 10.3 39 8.3 NE 2 7 1 4 1015.3 - 0.0
23/12:30pm 24.4 24.8 11.4 44 7.3 CALM 0 9 0 5 1015.8 - 0.0
23/12:00pm 23.2 23.5 10.9 46 6.8 CALM 0 0 0 0 1016.2 1016.1 0.0
23/11:30am 22.7 22.2 9.5 43 7.1 NW 2 9 1 5 1016.6 - 0.0
23/11:00am 22.0 21.6 11.1 50 6.1 W 4 7 2 4 1017.2 - 0.0
23/10:30am 20.6 20.5 10.7 53 5.4 SSW 2 7 1 4 1017.4 - 0.0
23/10:00am 19.5 19.6 10.2 55 5.0 CALM 0 0 0 0 1017.6 - 0.0
23/09:30am 16.6 17.0 11.3 71 2.9 CALM 0 0 0 0 1017.8 - 0.0
23/09:00am 14.1 14.5 11.1 82 1.6 CALM 0 0 0 0 1018.1 1018.0 0.0
23/08:30am 12.0 12.1 10.1 88 1.0 CALM 0 0 0 0 1018.2 - 0.0
23/08:00am 10.4 10.5 10.1 98 0.2 CALM 0 0 0 0 1018.2 - 0.0
23/07:30am 9.2 9.0 9.1 99 0.0 CALM 0 0 0 0 1018.0 - 0.0
23/07:00am 8.0 7.5 7.9 99 0.0 CALM 0 0 0 0 1017.7 - 0.0
23/06:43am 6.5 5.6 6.2 98 0.1 CALM 0 0 0 0 1017.7 - 0.0
23/06:31am 7.1 6.4 7.0 99 0.0 CALM 0 0 0 0 1017.6 - 0.0
23/06:30am 7.1 6.4 7.0 99 0.0 CALM 0 0 0 0 1017.6 - 0.0
23/06:00am 7.0 6.3 6.9 99 0.0 CALM 0 0 0 0 1017.4 1017.3 0.0
23/05:42am 6.9 6.1 6.6 98 0.1 CALM 0 0 0 0 1017.3 - 0.0
23/05:30am 6.8 6.0 6.5 98 0.1 CALM 0 0 0 0 1017.2 - 0.0
23/05:23am 6.9 6.2 6.8 99 0.0 CALM 0 0 0 0 1017.2 - 0.0
23/05:08am 7.3 6.7 7.2 99 0.0 CALM 0 0 0 0 1017.2 - 0.0
23/05:00am 7.2 6.5 7.1 99 0.0 CALM 0 0 0 0 1017.2 - 0.0
23/04:50am 6.9 6.1 6.6 98 0.1 CALM 0 0 0 0 1017.3 - 0.0
23/04:31am 7.0 6.2 6.7 98 0.1 CALM 0 0 0 0 1017.1 - 0.0
23/04:30am 7.1 6.4 6.8 98 0.1 CALM 0 0 0 0 1017.0 - 0.0
23/04:17am 7.3 6.6 7.0 98 0.1 CALM 0 0 0 0 1017.0 - 0.0
23/04:11am 7.3 6.6 7.0 98 0.1 CALM 0 0 0 0 1016.9 - 0.0
23/04:08am 7.2 6.5 6.9 98 0.1 CALM 0 0 0 0 1017.0 - 0.0
23/04:07am 7.0 6.2 6.7 98 0.1 CALM 0 0 0 0 1017.0 - 0.0
23/04:04am 6.8 6.0 6.5 98 0.1 CALM 0 0 0 0 1017.0 - 0.0
23/04:00am 7.0 6.2 6.7 98 0.1 CALM 0 0 0 0 1017.1 - 0.0
23/03:57am 7.0 6.2 6.7 98 0.1 CALM 0 0 0 0 1017.1 - 0.0
23/03:30am 7.9 7.3 7.6 98 0.1 CALM 0 0 0 0 1017.0 - 0.0
23/03:20am 7.5 6.9 7.2 98 0.1 CALM 0 0 0 0 1017.0 - 0.0
23/03:13am 7.9 7.3 7.6 98 0.1 CALM 0 0 0 0 1016.9 - 0.0
23/03:00am 7.7 7.1 7.3 97 0.2 CALM 0 0 0 0 1017.0 1016.9 0.0
23/02:50am 7.4 6.7 7.0 97 0.2 CALM 0 0 0 0 1016.9 - 0.0
23/02:33am 8.0 7.5 7.7 98 0.1 CALM 0 0 0 0 1017.1 - 0.0
23/02:30am 8.1 7.6 7.8 98 0.1 CALM 0 0 0 0 1017.1 - 0.0
23/02:17am 8.0 7.4 7.6 97 0.2 CALM 0 0 0 0 1017.1 - 0.0
23/02:16am 8.0 7.4 7.6 97 0.2 CALM 0 0 0 0 1017.1 - 0.0
23/02:14am 8.0 7.4 7.6 97 0.2 CALM 0 0 0 0 1017.1 - 0.0
23/02:05am 8.0 7.4 7.6 97 0.2 CALM 0 0 0 0 1017.1 - 0.0
23/02:00am 8.2 7.7 7.8 97 0.2 CALM 0 0 0 0 1017.1 - 0.0
23/01:34am 8.6 8.1 8.0 96 0.3 CALM 0 0 0 0 1017.2 - 0.0
23/01:32am 8.5 8.0 7.9 96 0.3 CALM 0 0 0 0 1017.2 - 0.0
23/01:31am 8.6 8.1 8.0 96 0.3 CALM 0 0 0 0 1017.2 - 0.0
23/01:30am 8.7 8.3 8.1 96 0.3 CALM 0 0 0 0 1017.2 - 0.0
23/01:00am 9.3 9.0 8.8 97 0.2 CALM 0 0 0 0 1017.2 - 0.0
23/12:55am 9.6 9.4 9.1 97 0.2 CALM 0 0 0 0 1017.2 - 0.0
23/12:49am 9.6 9.4 9.1 97 0.2 CALM 0 0 0 0 1017.1 - 0.0
23/12:43am 9.4 9.1 8.8 96 0.3 CALM 0 0 0 0 1017.1 - 0.0
23/12:30am 9.4 9.1 8.6 95 0.4 CALM 0 0 0 0 1017.0 - 0.0
23/12:03am 9.8 9.6 9.2 96 0.3 CALM 0 0 0 0 1017.0 - 0.0
23/12:00am 10.2 10.1 9.6 96 0.3 CALM 0 0 0 0 1017.0 1016.9 0.0
 
Date/Time
EST
Temp
°C
App
Temp
°C
Dew
Point
Rel
Hum
%
Delta-T
°C
Wind Press
QNH
hPa
Press
MSL
hPa
Rain
since 9 am
mm
Dir
 
Spd
km/h
Gust
km/h
Spd
kts
Gust
kts
22/11:59pm 10.2 10.1 9.6 96 0.3 CALM 0 0 0 0 1017.0 - 0.0
22/11:58pm 10.3 10.3 9.8 97 0.3 CALM 0 0 0 0 1017.0 - 0.0
22/11:50pm 10.8 10.9 10.2 96 0.3 CALM 0 0 0 0 1017.0 - 0.0
22/11:38pm 10.2 10.1 9.4 95 0.4 CALM 0 0 0 0 1016.9 - 0.0
22/11:30pm 10.5 10.5 9.9 96 0.3 CALM 0 0 0 0 1016.9 - 0.0
22/11:19pm 10.3 10.2 9.5 95 0.4 CALM 0 0 0 0 1016.9 - 0.0
22/11:00pm 10.7 10.7 9.9 95 0.4 CALM 0 0 0 0 1016.9 - 0.0
22/10:59pm 10.9 11.0 10.3 96 0.3 CALM 0 0 0 0 1017.0 - 0.0
22/10:46pm 11.1 10.1 10.2 94 0.5 S 6 9 3 5 1017.2 - 0.0
22/10:30pm 10.8 10.8 9.7 93 0.6 CALM 0 0 0 0 1017.1 - 0.0
22/10:00pm 12.1 12.4 11.0 93 0.6 CALM 0 0 0 0 1017.1 - 0.0
22/09:30pm 12.4 12.6 10.6 89 0.9 CALM 0 0 0 0 1017.1 - 0.0
22/09:00pm 13.0 13.4 11.4 90 0.8 CALM 0 0 0 0 1017.0 1016.9 0.0
22/08:30pm 13.8 14.2 11.3 85 1.3 CALM 0 0 0 0 1016.9 - 0.0
22/08:00pm 14.8 15.5 12.3 85 1.4 CALM 0 0 0 0 1016.7 - 0.0
22/07:30pm 15.8 15.8 12.4 80 1.9 SW 4 6 2 3 1016.7 - 0.0

Other Formats:

Comma delimited format used in spreadsheet applications
http://www.bom.gov.au/fwo/IDN60801/IDN60801.94755.axf

JavaScript Object Notation format (JSON) in row-major order
http://www.bom.gov.au/fwo/IDN60801/IDN60801.94755.json